Location: Palang K?h
(30.7323°N, 60.6148°E)
Time: 10:28:14
(UTC+00:00)

Daily predictions for brighter satellites

Satellite Brightness Start Highest point End
(mag) Time Altitude Azimuth Time Altitude Azimuth Time Altitude Azimuth
CZ-4C R/B 3.7 13:38:04 10° N 13:44:49 34° NE 13:52:09 10° ESE
Cosmos 1992 Rocket 4.0 13:42:22 10° S 13:47:31 67° ESE 13:52:43 10° NNE
Cosmos 1602 Rocket 3.8 13:45:54 10° N 13:50:15 77° W 13:54:35 10° S
Cosmos 1758 Rocket 4.1 13:46:17 10° NNE 13:50:25 37° E 13:54:33 10° SSE
ATLAS 5 CENTAUR R/B 3.0 13:48:20 10° SW 13:52:09 36° NW 13:56:15 10° NNE
IUS-18 SRM-1 4.3 13:40:27 10° WSW 13:52:53 40° S 13:56:21 10° ESE
OAO 2 Rocket 3.7 13:51:53 10° W 13:57:07 63° N 14:02:24 10° ENE
YAOGAN 6 3.4 13:55:51 10° SE 13:59:08 31° ENE 14:02:26 10° NNE
YAOGAN 1 3.3 13:58:41 10° SE 14:02:26 30° ENE 14:06:13 10° NNE
SKYMED 2 3.6 13:59:26 10° N 14:03:46 86° WNW 14:08:06 10° SSW
CSL-04 Rocket 4.2 14:00:30 10° SE 14:05:38 40° ENE 14:10:45 10° N
Okean-O 3.6 14:09:09 10° S 14:13:28 53° W 14:17:48 10° NNW
Nadezhda 3 Rocket 4.3 14:09:53 10° SSW 14:16:05 73° W 14:22:23 10° N
Atlas Centaur 2 2.8 14:10:50 10° W 14:16:57 48° SSW 14:21:44 10° SE
Cosmos 1726 Rocket 3.5 14:13:16 10° S 14:17:42 90° NNE 14:22:07 10° N
Cosmos 1821 Rocket 3.9 14:12:29 10° N 14:18:34 70° E 14:24:42 10° SSE
SL-4 R/B 4.0 14:19:14 10° NNE 14:19:38 10° NNE 14:20:01 10° NE
CZ-2D R/B 4.3 14:17:04 10° SE 14:20:10 24° ENE 14:23:17 10° NNE
Hubble Space Telescope 3.4 14:18:41 10° SW 14:20:47 14° SSW 14:22:52 10° S
OAO 3 Rocket 3.4 14:16:06 10° W 14:21:02 73° NNW 14:24:49 17° ENE
BREEZE-M DEB (TANK) 4.4 14:01:53 10° SW 14:22:53 76° NW 14:27:33 10° NE
Cosmos 2058 Rocket 3.0 14:20:13 10° S 14:24:32 66° E 14:28:52 10° NNE
Abrixas rocket 2.3 14:24:47 10° SSW 14:27:44 48° SE 14:28:55 30° ENE
Cosmos 1953 3.9 14:24:06 10° SSW 14:27:53 38° W 14:31:41 10° NNW
OAO 1 Rocket 4.4 14:25:15 10° WNW 14:30:34 86° SSW 14:34:13 21° ESE
Cosmos 1271 Rocket 2.6 14:27:59 10° N 14:31:58 75° E 14:35:56 10° SSE
Cosmos 1535 Rocket 4.5 14:27:02 10° N 14:33:07 57° E 14:39:06 10° SSE
Envisat 3.6 14:29:20 10° S 14:34:19 59° W 14:39:20 10° NNW
FengYun 1-2 T 4.4 14:29:43 10° S 14:35:23 80° WSW 14:41:02 10° NNW
Cosmos 2228 4.1 14:31:09 10° SSW 14:35:24 49° W 14:39:39 10° N
Cosmos 1934 Rocket 4.0 14:29:19 10° N 14:35:35 60° E 14:41:50 10° SSE
COSMOS 2406 4.3 14:33:20 10° N 14:37:54 24° ENE 14:38:38 23° ENE
Cosmos 1703 3.6 14:40:11 10° N 14:43:53 39° E 14:44:14 38° E
CSL-04 Debris 4.2 14:38:47 10° SSE 14:44:12 85° WSW 14:49:41 10° NNW
Cosmos 292 Rocket 3.7 14:40:16 10° SSW 14:45:00 86° WNW 14:49:46 10° NNE
Cosmos 921 Rocket 4.3 14:43:46 10° SSW 14:48:04 45° WNW 14:52:23 10° N
Cosmos 1939 Rocket 2.9 14:47:18 28° SE 14:49:02 52° ENE 14:52:53 10° N
Cosmos 1726 2.7 14:46:20 10° SSW 14:49:57 57° W 14:53:34 10° N
CZ-3 Stage 3 0.5 14:50:45 10° W 14:55:36 85° S 14:55:36 85° S
ADEOS Rocket 3.8 14:55:31 10° NNE 15:02:32 39° E 15:09:02 10° SSE
ASTRO E2 3.5 15:00:27 10° W 15:04:13 41° SSW 15:04:50 38° S
CZ-4 R/B 3.5 15:02:12 10° SSW 15:05:44 28° W 15:09:20 10° NW
Lacrosse 5 rocket 2.9 15:04:31 10° NNW 15:06:22 22° N 15:06:22 22° N
Cosmos 1354 Rocket 4.4 15:03:28 10° NNW 15:08:37 61° WSW 15:13:45 10° S
USA 238 DEB 3.6 15:02:43 10° SSW 15:09:12 61° ESE 15:12:19 32° NE
USA 238 3.6 15:02:50 10° SSW 15:09:19 60° ESE 15:12:19 33° NE
Cosmos 2278 Rocket 2.2 15:10:24 10° SSW 15:16:03 79° WNW 15:21:45 10° NNE
Ariane Rocket 2.9 15:12:51 17° SSE 15:16:51 87° WSW 15:21:58 10° NNW
CZ-3 Stage 3 4.5 15:18:47 10° WSW 15:19:02 12° WSW 15:19:02 12° WSW
Cosmos 839 Rocket 4.3 15:15:46 10° NNW 15:22:01 55° ENE 15:22:43 53° E
Cosmos 1242 Rocket 3.8 15:20:33 10° NNW 15:24:01 40° W 15:24:41 36° WSW
USA 234 3.2 15:22:41 32° NE 15:26:05 85° NW 15:32:37 10° SW
CZ-4C R/B 3.8 15:26:10 10° NW 15:33:39 51° WSW 15:41:42 10° S
H-2A R/B 4.3 15:38:24 13° N 15:38:24 13° N 15:38:58 10° N
NOSS 3-2 (A) 3.4 15:31:39 10° SSW 15:36:12 62° S 15:36:12 62° S
OAO 2 Rocket 4.1 15:37:08 10° WNW 15:41:32 50° NNW 15:41:32 50° NNW
Atlas Centaur 2 4.3 16:02:40 10° WSW 16:04:26 13° SW 16:04:26 13° SW
H-2A R/B 3.9 15:38:46 10° WSW 16:31:19 87° SSE 16:31:44 84° ESE
CZ-3B R/B 4.2 16:10:45 10° W 16:33:01 71° SSW 16:35:33 65° SSE
Cosmos 2219 Rocket 3.9 23:03:23 27° E 23:03:23 27° E 23:07:14 10° NE
COSMOS 2428 4.1 23:11:55 35° E 23:11:55 35° E 23:16:22 10° NE
Cosmos 2360 Rocket 4.3 23:36:20 15° N 23:36:20 15° N 23:37:19 10° N
Aureole 1 Rocket 4.4 23:35:01 28° S 23:39:08 66° ESE 23:45:10 10° NNE
Milstar 3 Cent rocket 4.2 23:40:52 18° S 23:41:28 18° SSE 23:44:55 10° ESE
USA 234 3.7 23:46:31 10° ESE 23:52:54 59° NE 23:57:06 23° NNW
IDEFIX/ARIANE 42P 3.5 23:48:09 10° N 23:51:16 36° N 23:51:16 36° N
MSX 3.9 23:48:21 10° NNE 23:54:04 74° ESE 23:58:07 20° S
